When you browse on this site, cookies collect data to enhance your experience and personalize the content and advertising you see.
Visit our Privacy Policy to learn more. By continuing to use the site, you agree to this use of cookies and data.
  • In United Kingdom
  • List of Countries
  • For 7 days
  • Water Temperature
  • Weather Map
  • Weather Widgets
  • user-avatar
    Login

    Hourly Weather Banbridge

    Today, 1 April, Wednesday

    Time Temperature Precipitation Wind Pressure Humidity
    00:00 +4°C° 0 mm 2 mps 765 mmHg 90%
    01:00 +4°C° 0 mm 2 mps 764 mmHg 90%
    02:00 +5°C° 0 mm 2 mps 764 mmHg 90%
    03:00 +4°C° 0 mm 3 mps 763 mmHg 90%
    04:00 +3°C° 0 mm 3 mps 763 mmHg 89%
    05:00 +3°C° 0 mm 3 mps 763 mmHg 89%
    06:00 +3°C° 0 mm 3 mps 762 mmHg 91%
    07:00 +4°C° 0 mm 3 mps 762 mmHg 87%
    08:00 +5°C° 0 mm 4 mps 762 mmHg 83%
    09:00 +5°C° 0 mm 4 mps 762 mmHg 79%
    10:00 +6°C° 0.1 mm 4 mps 761 mmHg 76%
    11:00 +6°C° 0.1 mm 4 mps 761 mmHg 73%
    12:00 +7°C° 0.1 mm 5 mps 761 mmHg 70%
    13:00 +7°C° 0 mm 5 mps 761 mmHg 71%
    14:00 +7°C° 0 mm 5 mps 760 mmHg 71%
    15:00 +7°C° 0 mm 4 mps 760 mmHg 71%
    16:00 +7°C° 0 mm 4 mps 760 mmHg 75%
    17:00 +7°C° 0 mm 4 mps 759 mmHg 79%
    18:00 +6°C° 0 mm 4 mps 759 mmHg 82%
    19:00 +6°C° 0 mm 4 mps 759 mmHg 86%
    20:00 +5°C° 0 mm 4 mps 759 mmHg 89%
    21:00 +5°C° 0 mm 4 mps 759 mmHg 92%
    22:00 +4°C° 0 mm 4 mps 758 mmHg 94%
    23:00 +4°C° 0 mm 3 mps 758 mmHg 95%

    Tomorrow, 2 April, Thursday

    Time Temperature Precipitation Wind Pressure Humidity
    00:00 +4°C° 0 mm 3 mps 758 mmHg 96%
    01:00 +4°C° 0.1 mm 4 mps 757 mmHg 96%
    02:00 +5°C° 0.1 mm 4 mps 757 mmHg 95%
    03:00 +5°C° 0.1 mm 4 mps 756 mmHg 95%
    04:00 +5°C° 0.1 mm 5 mps 755 mmHg 95%
    05:00 +5°C° 0.1 mm 5 mps 755 mmHg 95%
    06:00 +6°C° 0.1 mm 5 mps 754 mmHg 95%
    07:00 +5°C° 0.1 mm 6 mps 754 mmHg 93%
    08:00 +5°C° 0.1 mm 6 mps 754 mmHg 92%
    09:00 +5°C° 0.1 mm 7 mps 753 mmHg 91%
    10:00 +6°C° 0.2 mm 7 mps 753 mmHg 90%
    11:00 +6°C° 0.2 mm 7 mps 753 mmHg 90%
    12:00 +6°C° 0.2 mm 7 mps 753 mmHg 90%
    13:00 +6°C° 0.3 mm 7 mps 753 mmHg 87%
    14:00 +8°C° 0.3 mm 7 mps 753 mmHg 85%
    15:00 +8°C° 0.3 mm 7 mps 753 mmHg 83%
    16:00 +7°C° 0.1 mm 6 mps 753 mmHg 82%
    17:00 +6°C° 0.1 mm 5 mps 753 mmHg 80%
    18:00 +5°C° 0.1 mm 5 mps 753 mmHg 78%
    19:00 +4°C° 0 mm 4 mps 753 mmHg 80%
    20:00 +3°C° 0 mm 4 mps 753 mmHg 81%
    21:00 +2°C° 0 mm 3 mps 753 mmHg 83%
    22:00 +2°C° 0 mm 3 mps 754 mmHg 83%
    23:00 +2°C° 0 mm 3 mps 754 mmHg 84%

    Day after tomorrow, 3 April, Friday

    Time Temperature Precipitation Wind Pressure Humidity
    00:00 +1°C° 0 mm 3 mps 754 mmHg 84%
    01:00 +2°C° 0 mm 2 mps 754 mmHg 82%
    02:00 +3°C° 0 mm 2 mps 754 mmHg 80%
    03:00 +3°C° 0 mm 2 mps 753 mmHg 78%
    04:00 +3°C° 0 mm 2 mps 754 mmHg 80%
    05:00 +3°C° 0 mm 2 mps 754 mmHg 82%
    06:00 +3°C° 0 mm 2 mps 754 mmHg 85%
    07:00 +3°C° 0 mm 3 mps 754 mmHg 82%
    08:00 +4°C° 0 mm 3 mps 754 mmHg 79%
    09:00 +5°C° 0 mm 4 mps 754 mmHg 77%
    10:00 +5°C° 0 mm 4 mps 754 mmHg 74%
    11:00 +6°C° 0 mm 4 mps 754 mmHg 71%
    12:00 +7°C° 0 mm 4 mps 754 mmHg 68%
    13:00 +7°C° 0.1 mm 4 mps 754 mmHg 69%
    14:00 +9°C° 0.1 mm 3 mps 754 mmHg 69%
    15:00 +9°C° 0.1 mm 3 mps 754 mmHg 70%
    16:00 +9°C° 0.3 mm 2 mps 754 mmHg 76%
    17:00 +8°C° 0.3 mm 2 mps 754 mmHg 83%
    18:00 +8°C° 0.3 mm 1 mps 754 mmHg 90%
    19:00 +7°C° 0.1 mm 2 mps 754 mmHg 91%
    20:00 +6°C° 0.1 mm 2 mps 754 mmHg 92%
    21:00 +5°C° 0.1 mm 2 mps 754 mmHg 93%
    22:00 +4°C° 0 mm 2 mps 754 mmHg 93%
    23:00 +4°C° 0 mm 2 mps 754 mmHg 93%

    4 April, Saturday

    Time Temperature Precipitation Wind Pressure Humidity
    00:00 +3°C° 0 mm 2 mps 754 mmHg 93%
    01:00 +3°C° 0 mm 2 mps 754 mmHg 93%
    02:00 +3°C° 0 mm 2 mps 754 mmHg 93%
    03:00 +3°C° 0 mm 2 mps 754 mmHg 93%
    04:00 +3°C° 0 mm 2 mps 754 mmHg 93%
    05:00 +3°C° 0 mm 2 mps 754 mmHg 93%
    06:00 +3°C° 0 mm 2 mps 754 mmHg 92%
    07:00 +4°C° 0 mm 3 mps 753 mmHg 90%
    08:00 +5°C° 0 mm 4 mps 753 mmHg 87%
    09:00 +7°C° 0 mm 5 mps 753 mmHg 84%
    10:00 +7°C° 0 mm 5 mps 753 mmHg 82%
    11:00 +7°C° 0 mm 6 mps 753 mmHg 79%
    12:00 +8°C° 0 mm 7 mps 753 mmHg 76%
    13:00 +8°C° 0.1 mm 7 mps 752 mmHg 77%
    14:00 +6°C° 0.1 mm 7 mps 751 mmHg 79%
    15:00 +6°C° 0.1 mm 7 mps 751 mmHg 80%
    16:00 +7°C° 0 mm 6 mps 750 mmHg 80%
    17:00 +7°C° 0 mm 6 mps 750 mmHg 80%
    18:00 +7°C° 0 mm 6 mps 750 mmHg 81%
    19:00 +7°C° 0 mm 6 mps 750 mmHg 82%
    20:00 +5°C° 0 mm 6 mps 749 mmHg 83%
    21:00 +5°C° 0 mm 6 mps 749 mmHg 84%
    22:00 +5°C° 0 mm 6 mps 749 mmHg 85%
    23:00 +5°C° 0 mm 7 mps 749 mmHg 86%

    5 April, Sunday

    Time Temperature Precipitation Wind Pressure Humidity
    00:00 +5°C° 0 mm 7 mps 748 mmHg 88%
    01:00 +5°C° 0 mm 7 mps 748 mmHg 88%
    02:00 +5°C° 0 mm 7 mps 747 mmHg 89%
    03:00 +5°C° 0 mm 7 mps 746 mmHg 89%
    04:00 +6°C° 0 mm 8 mps 746 mmHg 88%
    05:00 +6°C° 0 mm 8 mps 745 mmHg 88%
    06:00 +6°C° 0 mm 8 mps 745 mmHg 87%
    07:00 +7°C° 0 mm 8 mps 744 mmHg 84%
    08:00 +7°C° 0 mm 9 mps 744 mmHg 82%
    09:00 +8°C° 0 mm 9 mps 743 mmHg 79%
    10:00 +8°C° 0 mm 9 mps 743 mmHg 78%
    11:00 +10°C° 0 mm 9 mps 742 mmHg 77%
    12:00 +10°C° 0 mm 9 mps 741 mmHg 77%
    13:00 +9°C° 0.1 mm 10 mps 741 mmHg 79%
    14:00 +9°C° 0.1 mm 10 mps 740 mmHg 82%
    15:00 +9°C° 0.1 mm 10 mps 739 mmHg 84%
    16:00 +9°C° 0.2 mm 10 mps 739 mmHg 87%
    17:00 +10°C° 0.2 mm 9 mps 739 mmHg 89%
    18:00 +10°C° 0.2 mm 8 mps 738 mmHg 91%
    19:00 +10°C° 0 mm 8 mps 739 mmHg 91%
    20:00 +10°C° 0 mm 8 mps 739 mmHg 91%
    21:00 +10°C° 0 mm 8 mps 739 mmHg 91%
    22:00 +10°C° 0.1 mm 7 mps 740 mmHg 92%
    23:00 +10°C° 0.1 mm 6 mps 740 mmHg 92%

    6 April, Monday

    Time Temperature Precipitation Wind Pressure Humidity
    00:00 +10°C° 0.1 mm 6 mps 741 mmHg 93%
    01:00 +8°C° 0.7 mm 6 mps 742 mmHg 94%
    02:00 +7°C° 0.7 mm 6 mps 743 mmHg 94%
    03:00 +5°C° 0.7 mm 5 mps 743 mmHg 95%
    04:00 +5°C° 0.5 mm 5 mps 744 mmHg 94%
    05:00 +3°C° 0.5 mm 5 mps 745 mmHg 93%
    06:00 +3°C° 0.5 mm 5 mps 746 mmHg 92%
    07:00 +3°C° 0 mm 5 mps 748 mmHg 88%
    08:00 +5°C° 0 mm 5 mps 749 mmHg 83%
    09:00 +5°C° 0 mm 5 mps 750 mmHg 79%
    10:00 +6°C° 0 mm 5 mps 751 mmHg 74%
    11:00 +7°C° 0 mm 5 mps 752 mmHg 68%
    12:00 +8°C° 0 mm 5 mps 753 mmHg 63%
    13:00 +8°C° 0 mm 4 mps 754 mmHg 62%
    14:00 +8°C° 0 mm 4 mps 755 mmHg 62%
    15:00 +9°C° 0 mm 3 mps 755 mmHg 61%
    16:00 +9°C° 0 mm 3 mps 756 mmHg 65%
    17:00 +8°C° 0 mm 2 mps 756 mmHg 68%
    18:00 +8°C° 0 mm 2 mps 757 mmHg 71%
    19:00 +6°C° 0 mm 2 mps 757 mmHg 75%
    20:00 +6°C° 0 mm 1 mps 758 mmHg 78%
    21:00 +4°C° 0 mm 1 mps 759 mmHg 81%
    22:00 +4°C° 0 mm 1 mps 759 mmHg 83%
    23:00 +3°C° 0 mm 1 mps 759 mmHg 85%
    Show more